TimeEST,TemperatureF,Dew PointF,Humidity,Sea Level PressureIn,VisibilityMPH,Wind Direction,Wind SpeedMPH,Gust SpeedMPH,PrecipitationIn,Events,Conditions,WindDirDegrees,DateUTC
12:53 AM,75.9,73.0,91,29.86,10.0,South,10.4,-,N/A,,Partly Cloudy,170,2013-02-26 05:53:00
1:53 AM,75.9,71.1,85,29.84,10.0,South,10.4,-,N/A,,Mostly Cloudy,170,2013-02-26 06:53:00
2:53 AM,75.9,72.0,87,29.83,10.0,South,12.7,-,N/A,,Clear,170,2013-02-26 07:53:00
3:25 AM,75.2,73.4,94,29.81,10.0,South,15.0,21.9,N/A,,Mostly Cloudy,170,2013-02-26 08:25:00
3:38 AM,75.2,73.4,94,29.81,10.0,South,12.7,26.5,N/A,,Scattered Clouds,170,2013-02-26 08:38:00
3:53 AM,75.9,72.0,87,29.82,10.0,South,13.8,20.7,N/A,,Partly Cloudy,170,2013-02-26 08:53:00
4:33 AM,75.2,71.6,89,29.82,10.0,South,12.7,20.7,N/A,,Mostly Cloudy,170,2013-02-26 09:33:00
4:53 AM,75.9,73.0,91,29.83,10.0,South,11.5,-,N/A,,Overcast,180,2013-02-26 09:53:00
5:25 AM,75.2,73.4,94,29.82,10.0,South,13.8,-,N/A,,Scattered Clouds,170,2013-02-26 10:25:00
5:53 AM,75.9,72.0,87,29.83,10.0,South,11.5,-,N/A,,Partly Cloudy,180,2013-02-26 10:53:00
6:53 AM,75.9,71.1,85,29.85,10.0,South,9.2,-,N/A,,Mostly Cloudy,170,2013-02-26 11:53:00
7:25 AM,77.0,73.4,89,29.85,10.0,South,13.8,18.4,N/A,,Overcast,170,2013-02-26 12:25:00
7:53 AM,77.0,73.0,88,29.87,9.0,South,10.4,-,0.00,,Scattered Clouds,190,2013-02-26 12:53:00
8:53 AM,79.0,71.1,77,29.88,10.0,South,10.4,-,N/A,,Mostly Cloudy,180,2013-02-26 13:53:00
9:53 AM,81.0,72.0,74,29.89,10.0,SSE,16.1,21.9,N/A,,Partly Cloudy,160,2013-02-26 14:53:00
10:53 AM,82.0,72.0,71,29.89,10.0,South,13.8,23.0,N/A,,Scattered Clouds,170,2013-02-26 15:53:00
11:53 AM,80.1,71.1,74,29.90,10.0,South,13.8,25.3,N/A,,Mostly Cloudy,170,2013-02-26 16:53:00
12:53 PM,82.0,73.0,74,29.89,10.0,SSE,13.8,-,N/A,,Mostly Cloudy,150,2013-02-26 17:53:00
1:53 PM,84.0,72.0,67,29.86,10.0,South,12.7,21.9,N/A,,Scattered Clouds,170,2013-02-26 18:53:00
2:53 PM,82.0,72.0,71,29.84,10.0,South,10.4,23.0,N/A,,Mostly Cloudy,170,2013-02-26 19:53:00
3:53 PM,80.1,72.0,76,29.83,10.0,SSE,13.8,25.3,N/A,,Overcast,160,2013-02-26 20:53:00
4:53 PM,82.9,68.0,60,29.84,10.0,SW,19.6,25.3,N/A,,Mostly Cloudy,220,2013-02-26 21:53:00
5:53 PM,81.0,69.1,67,29.85,10.0,SW,11.5,20.7,N/A,,Mostly Cloudy,220,2013-02-26 22:53:00
6:53 PM,81.0,70.0,69,29.87,10.0,SW,12.7,-,N/A,,Mostly Cloudy,230,2013-02-26 23:53:00
7:53 PM,79.0,70.0,74,29.89,10.0,SW,6.9,-,N/A,,Clear,220,2013-02-27 00:53:00
8:53 PM,79.0,71.1,77,29.90,10.0,SSW,5.8,-,N/A,,Overcast,200,2013-02-27 01:53:00
9:53 PM,78.1,72.0,81,29.91,10.0,South,8.1,-,N/A,,Clear,190,2013-02-27 02:53:00
10:53 PM,77.0,73.9,90,29.91,10.0,South,6.9,-,N/A,,Mostly Cloudy,190,2013-02-27 03:53:00
11:53 PM,77.0,73.9,90,29.91,10.0,SSW,6.9,-,N/A,,Overcast,200,2013-02-27 04:53:00